This is the latest recevied weather packets stored in our database for station/object IU1FIL-23. If no packets are shown the sender has not sent any weather packets the latest 10 day(s).
| Time | Temp. | Humidity | Pressure | Rain* | Wind** | Luminosity | Snow |
|---|---|---|---|---|---|---|---|
| 1778235705 | 20° C | 65% | 1017.3 hPa | - | - | - | - |
| 1778235101 | 20° C | 65% | 1017.4 hPa | - | - | - | - |
| 1778234530 | 20.56° C | 65% | 1017.4 hPa | - | - | - | - |
| 1778234496 | 20.56° C | 65% | 1017.4 hPa | - | - | - | - |
| 1778233892 | 21.67° C | 64% | 1017.3 hPa | - | - | - | - |
| 1778233288 | 21.67° C | 67% | 1017.3 hPa | - | - | - | - |
| 1778232684 | 21.67° C | 69% | 1017.2 hPa | - | - | - | - |
| 1778232080 | 20.56° C | 71% | 1017.1 hPa | - | - | - | - |
| 1778231476 | 20.56° C | 73% | 1017 hPa | - | - | - | - |
| 1778230865 | 20° C | 79% | 1017 hPa | - | - | - | - |
| 1778230253 | 20° C | 79% | 1016.9 hPa | - | - | - | - |
| 1778229649 | 20° C | 84% | 1017 hPa | - | - | - | - |
| 1778229045 | 18.89° C | 86% | 1016.9 hPa | - | - | - | - |
| 1778228470 | 17.78° C | 90% | 1016.8 hPa | - | - | - | - |
| 1778228434 | 17.78° C | 90% | 1016.8 hPa | - | - | - | - |
| 1778227830 | 17.22° C | 93% | 1016.6 hPa | - | - | - | - |
| 1778227226 | 16.11° C | 95% | 1016.7 hPa | - | - | - | - |
| 1778226622 | 15.56° C | 98% | 1016.5 hPa | - | - | - | - |
| 1778226007 | 15.56° C | 10% | - | - | - | - | - |
| 1778225403 | 15° C | 99% | 1016.3 hPa | - | - | - | - |
| 1778224799 | 15° C | 98% | 1016.3 hPa | - | - | - | - |
| 1778224195 | 14.44° C | 99% | 1016.1 hPa | - | - | - | - |
| 1778223591 | 13.33° C | 99% | 1016.1 hPa | - | - | - | - |
| 1778222976 | 12.78° C | 99% | 1016.1 hPa | - | - | - | - |
| 1778222372 | 12.78° C | 99% | 1016.1 hPa | - | - | - | - |
* Rain since midnight (hover to see other rain measurements)
** Current wind speed in m/s (hover to see current wind gust speed)